Track STARLINK-5427 now! 10-day predictions STARLINK-5427 is classified as:
1 54853U 22177AK 24325.97537142 -.00000378 00000-0 -12926-4 0 9992 2 54853 43.0052 174.5849 0001234 272.0092 88.0609 15.02532463104862